Content
SEND FEEDBACK

Daily
Averages
Monthly
Summary
United States of America

FAYETTEVILLE, TENNESSEE


Home > North America > United States > Tennessee
Elevation: 700 feet     Latitude: 35 10N     Longitude: 086 33W

WEATHER
 
SELECT A DAY
Number of Records: 307,991;   Date Range: 4/22/02 - 11/27/14
 
SHARE

PRINT THIS DATA

[ ← Previous Day ]
WEATHER ALMANAC - AUGUST 25, 2013
[ Next Day → ]
[ °C ]   °F
Weather ElementAverageHighLow
Temperature74.3 °F84.2 °F (2:55 pm)64.4 °F (11:55 pm)
Dewpoint60.6 °F66.2 °F (12:35 am)55.4 °F (4:35 pm)
Humidity64.9 %88 % (4:55 am)37 % (4:35 pm)
Barometer30.29 in30.34 in (9:15 am)30.24 in (12:35 am)
Wind Speed2.9 mph10.4 mph (10:55 am)
Wind Gust17.3 mph (9:55 am)
Weather ElementAverage
Visibility10 mi
Wind DirectionENE (68.5 °)

Weather ElementTotal
Precipitation---
Cooling Degree Days9.3 (Base 65)
Growing Degree Days24.3 (Base 50)
Averaged from 71 records on August 25, 2013
WEATHER CONDITIONS BREAKOUT
WIND DIRECTION BREAKOUT
WEATHER BY HOUR - AUGUST 25, 2013
[ °C ]   °F
Local TimeTemperatureDewpointHumidityBarometerVisibilityWind DirectionWind SpeedGust SpeedPrecipitationEventsConditions
12:35 AM71.6 °F66.2 °F83 %30.24 in10.0 miSE (130°)5.8 mphClear
12:55 AM71.6 °F66.2 °F83 %30.24 in10.0 miESE (120°)5.8 mphClear
1:15 AM71.6 °F64.4 °F78 %30.24 in10.0 miSE (130°)4.6 mphClear
1:35 AM71.6 °F64.4 °F78 %30.25 in10.0 miSE (130°)5.8 mphClear
1:55 AM71.6 °F62.6 °F73 %30.25 in10.0 miSE (130°)4.6 mphClear
2:15 AM71.6 °F62.6 °F73 %30.26 in10.0 miSE (130°)3.5 mphClear
2:35 AM71.6 °F62.6 °F73 %30.26 in10.0 miCalmClear
2:55 AM71.6 °F62.6 °F73 %30.26 in10.0 miSSE (150°)4.6 mphClear
3:15 AM71.6 °F62.6 °F73 %30.26 in10.0 miSSE (150°)3.5 mphClear
3:35 AM71.6 °F62.6 °F73 %30.27 in10.0 miSSE (150°)4.6 mphClear
3:55 AM69.8 °F62.6 °F78 %30.27 in10.0 miSSE (150°)4.6 mphClear
4:15 AM69.8 °F62.6 °F78 %30.28 in10.0 miCalmClear
4:35 AM68.0 °F62.6 °F83 %30.28 in10.0 miCalmClear
4:55 AM66.2 °F62.6 °F88 %30.28 in10.0 miCalmClear
5:15 AM66.2 °F62.6 °F88 %30.28 in10.0 miCalmClear
5:35 AM68.0 °F62.6 °F83 %30.28 in10.0 miCalmClear
5:55 AM68.0 °F62.6 °F83 %30.29 in10.0 miCalmClear
6:15 AM69.8 °F62.6 °F78 %30.29 in10.0 miSE (130°)3.5 mphClear
6:35 AM68.0 °F62.6 °F83 %30.30 in10.0 miCalmClear
6:55 AM68.0 °F62.6 °F83 %30.31 in7.0 miCalmClear
7:15 AM69.8 °F62.6 °F78 %30.31 in10.0 miCalmClear
7:35 AM69.8 °F62.6 °F78 %30.31 in10.0 miESE (120°)3.5 mphClear
7:55 AM71.6 °F62.6 °F73 %30.32 in10.0 miCalmClear
8:15 AM71.6 °F60.8 °F69 %30.33 in10.0 miCalmClear
8:35 AM73.4 °F60.8 °F65 %30.33 in10.0 miESE (120°)5.8 mphClear
8:55 AM73.4 °F59.0 °F61 %30.33 in10.0 miESE (120°)8.1 mphClear
9:15 AM75.2 °F59.0 °F57 %30.34 in10.0 miESE (110°)5.8 mphClear
9:35 AM77.0 °F57.2 °F50 %30.34 in10.0 miESE (110°)9.2 mphClear
9:55 AM77.0 °F57.2 °F50 %30.34 in10.0 miESE (120°)5.8 mph17.3 mphClear
10:15 AM77.0 °F57.2 °F50 %30.34 in10.0 miESE (120°)9.2 mphClear
10:35 AM77.0 °F59.0 °F54 %30.34 in10.0 miESE (120°)8.1 mphClear
10:55 AM78.8 °F59.0 °F51 %30.34 in10.0 miESE (120°)10.4 mphClear
11:15 AM78.8 °F59.0 °F51 %30.34 in10.0 miSE (130°)6.9 mphClear
11:35 AM78.8 °F59.0 °F51 %30.34 in10.0 miSE (140°)8.1 mphClear
11:55 AM80.6 °F57.2 °F45 %30.33 in10.0 miSE (140°)4.6 mph16.1 mphClear
12:15 PM80.6 °F57.2 °F45 %30.32 in10.0 miSSE (150°)6.9 mphClear
12:35 PM80.6 °F57.2 °F45 %30.31 in10.0 miSSE (160°)8.1 mphClear
12:55 PM80.6 °F57.2 °F45 %30.30 in10.0 miCalmClear
1:15 PM80.6 °F57.2 °F45 %30.29 in10.0 miSE (140°)6.9 mphScattered Clouds
1:35 PM82.4 °F59.0 °F45 %30.29 in10.0 miESE (110°)3.5 mphScattered Clouds
1:55 PM82.4 °F59.0 °F45 %30.28 in10.0 miSouth (170°)3.5 mphScattered Clouds
2:15 PM82.4 °F59.0 °F45 %30.28 in10.0 miSSE (150°)4.6 mphScattered Clouds
2:35 PM82.4 °F57.2 °F42 %30.27 in10.0 miESE (120°)3.5 mphScattered Clouds
2:55 PM84.2 °F57.2 °F40 %30.27 in10.0 miSSE (160°)3.5 mphScattered Clouds
3:15 PM82.4 °F57.2 °F42 %30.26 in10.0 miCalmScattered Clouds
3:35 PM82.4 °F59.0 °F45 %30.25 in10.0 miSE (130°)3.5 mphScattered Clouds
3:55 PM82.4 °F57.2 °F42 %30.24 in10.0 miESE (110°)4.6 mphScattered Clouds
4:15 PM82.4 °F57.2 °F42 %30.25 in10.0 miSE (130°)3.5 mphScattered Clouds
4:35 PM84.2 °F55.4 °F37 %30.24 in10.0 miSE (130°)5.8 mphScattered Clouds
4:55 PM82.4 °F57.2 °F42 %30.25 in10.0 miCalmScattered Clouds
5:15 PM82.4 °F55.4 °F39 %30.25 in10.0 miESE (120°)3.5 mphScattered Clouds
5:35 PM80.6 °F55.4 °F42 %30.25 in10.0 miCalmScattered Clouds
5:55 PM80.6 °F57.2 °F45 %30.25 in10.0 miESE (110°)4.6 mphClear
6:15 PM80.6 °F57.2 °F45 %30.25 in10.0 miCalmClear
6:35 PM80.6 °F60.8 °F51 %30.26 in10.0 miCalmClear
6:55 PM77.0 °F62.6 °F61 %30.26 in10.0 miCalmClear
7:15 PM73.4 °F62.6 °F69 %30.26 in10.0 miCalmClear
7:35 PM71.6 °F62.6 °F73 %30.26 in10.0 miCalmClear
7:55 PM71.6 °F62.6 °F73 %30.27 in10.0 miCalmClear
8:15 PM71.6 °F62.6 °F73 %30.27 in10.0 miCalmClear
8:35 PM69.8 °F62.6 °F78 %30.28 in10.0 miCalmClear
8:55 PM69.8 °F62.6 °F78 %30.28 in10.0 miCalmClear
9:15 PM68.0 °F62.6 °F83 %30.29 in10.0 miCalmClear
9:35 PM69.8 °F62.6 °F78 %30.29 in10.0 miCalmClear
9:55 PM68.0 °F62.6 °F83 %30.29 in10.0 miCalmClear
10:15 PM68.0 °F62.6 °F83 %30.30 in10.0 miCalmClear
10:35 PM66.2 °F62.6 °F88 %30.30 in10.0 miCalmClear
10:55 PM66.2 °F62.6 °F88 %30.31 in10.0 miCalmClear
11:15 PM66.2 °F62.6 °F88 %30.31 in10.0 miCalmClear
11:35 PM66.2 °F62.6 °F88 %30.31 in10.0 miCalmClear
11:55 PM64.4 °F60.8 °F88 %30.31 in10.0 miCalmClear
Hourly data recorded from KMDQ, located miles away from Fayetteville, Tennessee







STORIES FROM OUR PARTNERS